^^
B2 Weather Station Historical Data
Daily Summary for December 27, 2018 Units:  English    Metric   Both
Daily Weekly Monthly Yearly Custom
  High: Low: Average:
Temperature: 51.6 °F 37.6 °F 44.5 °F
Dew Point: 50 °F 32.9 °F 41.9 °F
Humidity: 95% 79% 91%
Wind Speed: 38mph 5mph 15.5mph
Wind Gust: 28mph - -
Wind- - SSE
Pressure: 30.23 in 29.57 in -
Precipitation: 0.78 in    
Historical Graphs
 
 
Tabular Data for December 27, 2018
Time Temperature Dew Point Pressure Wind Wind Speed Wind Gust Humidity Rainfall Rate (Hourly) solar
00:04 38.9 °F 33.6 °F 30.23 in ESE 11 mph 7 mph 81% 0 in 0.00 W/m2
00:09 38.9 °F 33.6 °F 30.23 in ESE 9 mph 4.9 mph 81% 0 in 0.00 W/m2
00:14 38.9 °F 33.6 °F 30.23 in ESE 9.2 mph 6.1 mph 81% 0 in 0.00 W/m2
00:19 38.9 °F 33.6 °F 30.23 in ESE 10.4 mph 8 mph 81% 0 in 0.00 W/m2
00:24 39 °F 33.7 °F 30.23 in SE 11.5 mph 4.9 mph 81% 0 in 0.00 W/m2
00:29 38.9 °F 33.6 °F 30.23 in ESE 10.4 mph 5.5 mph 81% 0 in 0.00 W/m2
00:34 39 °F 33.7 °F 30.23 in SE 8.1 mph 5.3 mph 81% 0 in 0.00 W/m2
00:39 39 °F 33.4 °F 30.23 in ESE 9.2 mph 6.6 mph 80% 0 in 0.00 W/m2
00:44 39.1 °F 33.5 °F 30.22 in North 9.2 mph 4.1 mph 80% 0 in 0.00 W/m2
00:49 39.1 °F 33.5 °F 30.21 in ESE 8.1 mph 4.1 mph 80% 0 in 0.00 W/m2
00:54 39 °F 33.4 °F 30.21 in ESE 9.2 mph 3 mph 80% 0 in 0.00 W/m2
00:59 38.9 °F 33.3 °F 30.21 in ESE 8.1 mph 5.1 mph 80% 0 in 0.00 W/m2
01:04 39 °F 33.4 °F 30.21 in SE 9.2 mph 3.5 mph 80% 0 in 0.00 W/m2
01:09 39 °F 33.4 °F 30.21 in SE 8.1 mph 2.9 mph 80% 0 in 0.00 W/m2
01:14 39 °F 33.4 °F 30.20 in North 11.5 mph 4.5 mph 80% 0 in 0.00 W/m2
01:19 39 °F 33.4 °F 30.20 in ESE 9.2 mph 5.3 mph 80% 0 in 0.00 W/m2
01:24 39 °F 33.4 °F 30.20 in ESE 8.1 mph 3.5 mph 80% 0 in 0.00 W/m2
01:29 39 °F 33.4 °F 30.19 in ESE 6.9 mph 4.4 mph 80% 0 in 0.00 W/m2
01:34 39 °F 33.4 °F 30.19 in North 10.4 mph 3.4 mph 80% 0 in 0.00 W/m2
01:39 38.9 °F 33.3 °F 30.19 in ESE 10.4 mph 4.2 mph 80% 0 in 0.00 W/m2
01:44 39 °F 33.4 °F 30.18 in ESE 13.8 mph 8 mph 80% 0 in 0.00 W/m2
01:49 38.9 °F 33.3 °F 30.18 in North 7 mph 3.5 mph 80% 0 in 0.00 W/m2
01:54 38.9 °F 33.3 °F 30.18 in North 9.2 mph 7.2 mph 80% 0 in 0.00 W/m2
01:59 39.1 °F 33.5 °F 30.18 in North 12 mph 8 mph 80% 0 in 0.00 W/m2
02:04 39.1 °F 33.5 °F 30.17 in ESE 11 mph 8.5 mph 80% 0 in 0.00 W/m2
02:09 39.1 °F 33.1 °F 30.17 in East 12.7 mph 8.9 mph 79% 0 in 0.00 W/m2
02:14 39 °F 33.4 °F 30.16 in North 13.8 mph 10 mph 80% 0 in 0.00 W/m2
02:19 39.1 °F 33.5 °F 30.17 in North 12.7 mph 9 mph 80% 0 in 0.00 W/m2
02:24 39.1 °F 33.8 °F 30.17 in ESE 12.7 mph 8.3 mph 81% 0 in 0.00 W/m2
02:29 38.8 °F 33.8 °F 30.16 in SE 11.5 mph 10.2 mph 82% 0 in 0.00 W/m2
02:34 38.5 °F 34.1 °F 30.16 in ESE 13.8 mph 8.7 mph 84% 0 in 0.00 W/m2
02:39 38.4 °F 34 °F 30.16 in SE 9.2 mph 9 mph 84% 0 in 0.00 W/m2
02:44 38.4 °F 34 °F 30.16 in ESE 15 mph 10.6 mph 84% 0 in 0.00 W/m2
02:49 38.4 °F 34 °F 30.15 in SE 14 mph 10.5 mph 84% 0 in 0.00 W/m2
02:54 38.4 °F 34 °F 30.14 in SE 12.7 mph 9.5 mph 84% 0 in 0.00 W/m2
02:59 38.5 °F 34.1 °F 30.14 in ESE 15 mph 10.9 mph 84% 0 in 0.00 W/m2
03:04 38.5 °F 33.8 °F 30.13 in North 11.5 mph 10.5 mph 83% 0 in 0.00 W/m2
03:09 38.6 °F 33.9 °F 30.13 in ESE 13.8 mph 10.6 mph 83% 0 in 0.00 W/m2
03:14 38.5 °F 33.5 °F 30.13 in ESE 13.8 mph 9.9 mph 82% 0 in 0.00 W/m2
03:19 38.4 °F 33.4 °F 30.13 in ESE 12.7 mph 11.3 mph 82% 0 in 0.00 W/m2
03:24 38.4 °F 33.7 °F 30.12 in ESE 13.8 mph 10.1 mph 83% 0 in 0.00 W/m2
03:29 38.3 °F 33.6 °F 30.12 in North 15 mph 8.9 mph 83% 0 in 0.00 W/m2
03:34 38.3 °F 33.6 °F 30.12 in ESE 11.5 mph 9.7 mph 83% 0 in 0.00 W/m2
03:39 38.3 °F 33.6 °F 30.11 in ESE 15 mph 8.8 mph 83% 0 in 0.00 W/m2
03:44 38.3 °F 33.6 °F 30.11 in ESE 12.7 mph 9.3 mph 83% 0 in 0.00 W/m2
03:49 38.3 °F 33.6 °F 30.10 in ESE 11.5 mph 10.1 mph 83% 0 in 0.00 W/m2
03:54 38.4 °F 33.7 °F 30.10 in ESE 12 mph 8.3 mph 83% 0 in 0.00 W/m2
03:59 38.3 °F 33.3 °F 30.09 in SE 16.1 mph 8.8 mph 82% 0 in 0.00 W/m2
04:04 38.1 °F 33.1 °F 30.08 in ESE 13.8 mph 9.7 mph 82% 0 in 0.00 W/m2
04:09 37.9 °F 32.9 °F 30.08 in ESE 13.8 mph 9.6 mph 82% 0 in 0.00 W/m2
04:14 37.9 °F 32.9 °F 30.09 in North 12.7 mph 9.9 mph 82% 0 in 0.00 W/m2
04:19 37.9 °F 33.2 °F 30.09 in SE 15 mph 8.7 mph 83% 0 in 0.00 W/m2
04:24 37.7 °F 33 °F 30.08 in SE 10.4 mph 9.4 mph 83% 0 in 0.00 W/m2
04:29 37.6 °F 32.9 °F 30.08 in ESE 11.5 mph 9.1 mph 83% 0 in 0.00 W/m2
04:34 37.7 °F 33 °F 30.07 in ESE 11.5 mph 7.9 mph 83% 0 in 0.00 W/m2
04:39 37.7 °F 33.3 °F 30.07 in ESE 10.4 mph 7.3 mph 84% 0 in 0.00 W/m2
04:44 37.9 °F 33.5 °F 30.07 in North 15 mph 9.2 mph 84% 0 in 0.00 W/m2
04:49 38.1 °F 33.4 °F 30.07 in ESE 12.7 mph 9.6 mph 83% 0 in 0.00 W/m2
04:54 38.2 °F 33.5 °F 30.08 in ESE 12.7 mph 8.1 mph 83% 0 in 0.00 W/m2
04:59 38.2 °F 33.5 °F 30.07 in ESE 11.5 mph 8.9 mph 83% 0 in 0.00 W/m2
05:04 38.3 °F 33.6 °F 30.07 in ESE 10.4 mph 7 mph 83% 0 in 0.00 W/m2
05:09 38.4 °F 33.7 °F 30.07 in ESE 16.1 mph 8.4 mph 83% 0 in 0.00 W/m2
05:14 38.5 °F 33.8 °F 30.05 in East 13.8 mph 11.1 mph 83% 0 in 0.00 W/m2
05:19 38.5 °F 33.8 °F 30.05 in North 12 mph 9.7 mph 83% 0 in 0.00 W/m2
05:24 38.5 °F 33.8 °F 30.04 in ESE 15 mph 8.6 mph 83% 0 in 0.00 W/m2
05:29 38.6 °F 33.6 °F 30.04 in ESE 12.7 mph 8.6 mph 82% 0 in 0.00 W/m2
05:34 38.6 °F 33.9 °F 30.04 in ESE 15 mph 11.4 mph 83% 0 in 0.00 W/m2
05:39 38.6 °F 33.6 °F 30.04 in SE 13.8 mph 9.6 mph 82% 0 in 0.00 W/m2
05:44 38.6 °F 33.9 °F 30.03 in SE 13.8 mph 9.2 mph 83% 0 in 0.00 W/m2
05:49 38.7 °F 34 °F 30.03 in ESE 15 mph 9.5 mph 83% 0 in 0.00 W/m2
05:54 38.9 °F 34.2 °F 30.03 in ESE 17.3 mph 11.2 mph 83% 0 in 0.00 W/m2
05:59 39.1 °F 34.4 °F 30.04 in ESE 13.8 mph 9.2 mph 83% 0 in 0.00 W/m2
06:04 39.3 °F 34.6 °F 30.04 in SE 13.8 mph 9.8 mph 83% 0 in 0.00 W/m2
06:09 39.4 °F 34.7 °F 30.04 in SE 12.7 mph 8.2 mph 83% 0 in 0.00 W/m2
06:14 39.6 °F 34.9 °F 30.04 in SE 11.5 mph 8.3 mph 83% 0 in 0.00 W/m2
06:19 39.8 °F 34.8 °F 30.05 in ESE 17.3 mph 12.5 mph 82% 0 in 0.00 W/m2
06:24 40.1 °F 34.7 °F 30.05 in ESE 14 mph 10.9 mph 81% 0 in 0.00 W/m2
06:29 40.1 °F 34.7 °F 30.05 in SSE 14 mph 11.4 mph 81% 0 in 0.00 W/m2
06:34 40.1 °F 34.7 °F 30.05 in ESE 11.5 mph 7.5 mph 81% 0 in 0.00 W/m2
06:39 40.1 °F 35 °F 30.05 in SE 13.8 mph 9.9 mph 82% 0 in 0.00 W/m2
06:44 39.9 °F 35.5 °F 30.05 in SE 11.5 mph 10.2 mph 84% 0 in 0.00 W/m2
06:49 39.4 °F 35.3 °F 30.05 in North 13.8 mph 9.9 mph 85% 0.01 in 0.00 W/m2
06:54 39.1 °F 35.3 °F 30.05 in SE 11.5 mph 8.8 mph 86% 0.01 in 0.00 W/m2
06:59 38.9 °F 35.4 °F 30.05 in North 15 mph 8.9 mph 87% 0.02 in 0.00 W/m2
07:04 38.8 °F 35.6 °F 30.05 in SE 13.8 mph 9.5 mph 88% 0.03 in 0.00 W/m2
07:09 38.8 °F 35.8 °F 30.05 in ESE 11.5 mph 7.9 mph 89% 0.03 in 0.00 W/m2
07:14 38.7 °F 35.7 °F 30.05 in ESE 12 mph 8.4 mph 89% 0.04 in 0.00 W/m2
07:19 38.6 °F 35.9 °F 30.05 in SE 11.5 mph 8.4 mph 90% 0.04 in 0.00 W/m2
07:24 38.7 °F 36.3 °F 30.05 in SE 11.5 mph 9.3 mph 91% 0.05 in 0.00 W/m2
07:29 38.7 °F 36.3 °F 30.05 in ESE 14 mph 9.6 mph 91% 0.06 in 0.00 W/m2
07:34 38.8 °F 36.4 °F 30.05 in ESE 17.3 mph 8.6 mph 91% 0.07 in 0.00 W/m2
07:39 38.8 °F 36.7 °F 30.04 in SE 11.5 mph 9.3 mph 92% 0.08 in 0.00 W/m2
07:44 38.8 °F 36.7 °F 30.04 in SE 11.5 mph 8.7 mph 92% 0.09 in 0.00 W/m2
07:49 38.9 °F 36.8 °F 30.04 in SE 18.4 mph 11.7 mph 92% 0.09 in 0.00 W/m2
07:54 39 °F 36.9 °F 30.03 in SE 12.7 mph 11.2 mph 92% 0.1 in 0.00 W/m2
07:59 39.1 °F 37.2 °F 30.03 in SE 15 mph 12.6 mph 93% 0.11 in 0.00 W/m2
08:04 39.1 °F 37.2 °F 30.02 in SE 16.1 mph 8.2 mph 93% 0.13 in 0.00 W/m2
08:09 39.2 °F 37.3 °F 30.02 in SE 19.6 mph 12.7 mph 93% 0.14 in 5.00 W/m2
08:14 39.3 °F 37.4 °F 30.02 in ESE 18.4 mph 10.7 mph 93% 0.14 in 5.00 W/m2
08:19 39.3 °F 37.4 °F 30.02 in SE 17.3 mph 12.3 mph 93% 0.15 in 5.00 W/m2
08:24 39.4 °F 37.5 °F 30.02 in SSE 19.6 mph 12.5 mph 93% 0.14 in 5.00 W/m2
08:29 39.5 °F 37.9 °F 30.02 in SE 17.3 mph 10.5 mph 94% 0.14 in 7.00 W/m2
08:34 39.7 °F 38.1 °F 30.01 in SE 16.1 mph 11.4 mph 94% 0.14 in 5.00 W/m2
08:39 39.8 °F 38.2 °F 30.01 in SE 17.3 mph 13.1 mph 94% 0.13 in 14.00 W/m2
08:44 39.9 °F 38.3 °F 30.01 in SE 19 mph 13 mph 94% 0.13 in 12.00 W/m2
08:49 39.9 °F 38.3 °F 30.01 in ESE 18.4 mph 13.2 mph 94% 0.13 in 9.00 W/m2
08:54 40 °F 38.4 °F 30.00 in SE 18 mph 13.2 mph 94% 0.13 in 14.00 W/m2
08:59 40.1 °F 38.5 °F 29.99 in SE 16.1 mph 11.5 mph 94% 0.11 in 19.00 W/m2
09:04 40.2 °F 38.6 °F 29.99 in SE 17.3 mph 13.4 mph 94% 0.09 in 14.00 W/m2
09:09 40.3 °F 38.7 °F 29.98 in SE 21.9 mph 14.8 mph 94% 0.09 in 14.00 W/m2
09:14 40.5 °F 38.9 °F 29.97 in ESE 19.6 mph 13.8 mph 94% 0.09 in 16.00 W/m2
09:19 40.7 °F 39.1 °F 29.96 in ESE 21.9 mph 13.5 mph 94% 0.09 in 25.00 W/m2
09:24 40.9 °F 39.3 °F 29.95 in SE 19.6 mph 14.1 mph 94% 0.1 in 21.00 W/m2
09:29 41.1 °F 39.5 °F 29.95 in SE 18.4 mph 13.9 mph 94% 0.1 in 28.00 W/m2
09:34 41.2 °F 39.6 °F 29.95 in SE 20 mph 14.8 mph 94% 0.09 in 12.00 W/m2
09:39 41.4 °F 39.8 °F 29.95 in SE 23 mph 15 mph 94% 0.1 in 14.00 W/m2
09:44 41.5 °F 39.9 °F 29.95 in SE 18.4 mph 15 mph 94% 0.09 in 12.00 W/m2
09:49 41.7 °F 40.1 °F 29.94 in SSE 21.9 mph 14.7 mph 94% 0.1 in 14.00 W/m2
09:54 41.9 °F 40.3 °F 29.93 in SE 23 mph 17.8 mph 94% 0.12 in 18.00 W/m2
09:59 41.7 °F 40.1 °F 29.93 in SE 26.5 mph 16.6 mph 94% 0.13 in 9.00 W/m2
10:04 41.5 °F 39.9 °F 29.93 in SSE 26.5 mph 15.9 mph 94% 0.13 in 12.00 W/m2
10:09 41.5 °F 39.9 °F 29.92 in ESE 23 mph 15 mph 94% 0.14 in 11.00 W/m2
10:14 41.5 °F 39.9 °F 29.91 in SSE 22 mph 15.8 mph 94% 0.14 in 19.00 W/m2
10:19 41.6 °F 40 °F 29.90 in ESE 21.9 mph 12.2 mph 94% 0.14 in 11.00 W/m2
10:24 41.8 °F 40.2 °F 29.89 in SE 23 mph 14.5 mph 94% 0.14 in 14.00 W/m2
10:29 41.9 °F 40.3 °F 29.89 in SE 20.7 mph 15.4 mph 94% 0.14 in 18.00 W/m2
10:34 42.1 °F 40.5 °F 29.88 in SE 23 mph 18.2 mph 94% 0.16 in 14.00 W/m2
10:39 42.2 °F 40.6 °F 29.88 in SE 24.2 mph 16.1 mph 94% 0.16 in 11.00 W/m2
10:44 42.3 °F 40.7 °F 29.87 in ESE 19.6 mph 13.7 mph 94% 0.17 in 16.00 W/m2
10:49 42.4 °F 40.8 °F 29.86 in SE 23 mph 15.6 mph 94% 0.16 in 18.00 W/m2
10:54 42.5 °F 40.9 °F 29.85 in ESE 19.6 mph 13.7 mph 94% 0.15 in 11.00 W/m2
10:59 42.5 °F 40.9 °F 29.85 in ESE 23 mph 17.2 mph 94% 0.15 in 12.00 W/m2
11:04 42.6 °F 41 °F 29.84 in SSE 20.7 mph 14.7 mph 94% 0.15 in 16.00 W/m2
11:09 42.7 °F 41.1 °F 29.84 in SE 19.6 mph 15.4 mph 94% 0.15 in 26.00 W/m2
11:14 42.9 °F 41.3 °F 29.83 in North 25.3 mph 16.9 mph 94% 0.16 in 23.00 W/m2
11:19 43 °F 41.7 °F 29.84 in SE 24.2 mph 16.1 mph 95% 0.16 in 16.00 W/m2
11:24 42.9 °F 41.3 °F 29.82 in SE 19.6 mph 13.2 mph 94% 0.15 in 18.00 W/m2
11:29 42.9 °F 41.3 °F 29.82 in SE 25.3 mph 15 mph 94% 0.14 in 16.00 W/m2
11:34 42.9 °F 41.3 °F 29.81 in SE 19.6 mph 16.3 mph 94% 0.12 in 18.00 W/m2
11:39 43.3 °F 41.7 °F 29.81 in SSE 20.7 mph 13 mph 94% 0.11 in 18.00 W/m2
11:44 43.4 °F 41.8 °F 29.80 in SE 24.2 mph 16.3 mph 94% 0.1 in 18.00 W/m2
11:49 43.5 °F 41.9 °F 29.79 in ESE 23 mph 18.8 mph 94% 0.09 in 21.00 W/m2
11:54 43.4 °F 41.8 °F 29.78 in ESE 25.3 mph 19.9 mph 94% 0.08 in 25.00 W/m2
11:59 43.5 °F 41.9 °F 29.77 in SE 26.5 mph 16.3 mph 94% 0.07 in 25.00 W/m2
12:04 43.6 °F 42 °F 29.76 in SE 27.6 mph 19.2 mph 94% 0.07 in 21.00 W/m2
12:09 43.6 °F 42.3 °F 29.75 in ESE 18.4 mph 14.9 mph 95% 0.05 in 21.00 W/m2
12:14 43.7 °F 42.4 °F 29.75 in SE 27.6 mph 18 mph 95% 0.04 in 19.00 W/m2
12:19 43.9 °F 42.6 °F 29.72 in ESE 21.9 mph 17.3 mph 95% 0.03 in 39.00 W/m2
12:24 44.1 °F 42.5 °F 29.73 in SE 31.1 mph 17.2 mph 94% 0.04 in 53.00 W/m2
12:29 44.3 °F 43 °F 29.73 in SSE 26.5 mph 18.3 mph 95% 0.04 in 33.00 W/m2
12:34 44.5 °F 43.2 °F 29.73 in North 24.2 mph 18.2 mph 95% 0.04 in 26.00 W/m2
12:39 44.6 °F 43.3 °F 29.73 in SE 35 mph 20 mph 95% 0.04 in 33.00 W/m2
12:44 44.7 °F 43.1 °F 29.72 in SE 31 mph 21 mph 94% 0.04 in 42.00 W/m2
12:49 44.9 °F 43.3 °F 29.71 in SE 25.3 mph 18.6 mph 94% 0.05 in 47.00 W/m2
12:54 45.2 °F 43.9 °F 29.69 in SE 29.9 mph 20 mph 95% 0.04 in 46.00 W/m2
12:59 45.4 °F 43.8 °F 29.68 in SSE 31.1 mph 22.9 mph 94% 0.04 in 21.00 W/m2
13:04 45.7 °F 44.4 °F 29.68 in SE 27.6 mph 20.2 mph 95% 0.03 in 39.00 W/m2
13:09 45.9 °F 44.3 °F 29.68 in North 34.5 mph 19.7 mph 94% 0.03 in 44.00 W/m2
13:14 46.1 °F 44.5 °F 29.69 in SSE 33.4 mph 21.4 mph 94% 0.02 in 19.00 W/m2
13:19 46.3 °F 44.9 °F 29.68 in SE 33.4 mph 21.6 mph 95% 0.03 in 23.00 W/m2
13:24 46.5 °F 44.9 °F 29.68 in SSE 25.3 mph 19.5 mph 94% 0.02 in 19.00 W/m2
13:29 46.9 °F 45.5 °F 29.68 in SSE 29.9 mph 23.5 mph 95% 0.02 in 19.00 W/m2
13:34 47 °F 45.6 °F 29.67 in SSE 29.9 mph 21.9 mph 95% 0.02 in 26.00 W/m2
13:39 47.2 °F 45.6 °F 29.67 in SSE 33.4 mph 21.6 mph 94% 0.03 in 30.00 W/m2
13:44 47.3 °F 45.7 °F 29.66 in SSE 20 mph 19 mph 94% 0.03 in 32.00 W/m2
13:49 47.3 °F 45.7 °F 29.65 in SE 29.9 mph 24 mph 94% 0.03 in 35.00 W/m2
13:54 47.5 °F 46.1 °F 29.62 in SSE 33.4 mph 24.7 mph 95% 0.03 in 47.00 W/m2
13:59 47.8 °F 46.4 °F 29.57 in SSE 32 mph 28 mph 95% 0.03 in 60.00 W/m2
14:04 48 °F 46.6 °F 29.63 in SE 38 mph 22.4 mph 95% 0.04 in 83.00 W/m2
14:09 48.2 °F 46.8 °F 29.64 in SSE 34.5 mph 24.7 mph 95% 0.04 in 84.00 W/m2
14:14 48.4 °F 46.8 °F 29.63 in SSE 26.5 mph 20.9 mph 94% 0.04 in 63.00 W/m2
14:19 48.4 °F 46.8 °F 29.63 in SSE 34.5 mph 23.3 mph 94% 0.03 in 47.00 W/m2
14:24 48.4 °F 46.8 °F 29.64 in SSE 29 mph 20 mph 94% 0.03 in 46.00 W/m2
14:29 48.4 °F 46.8 °F 29.65 in SSE 19.6 mph 18 mph 94% 0.03 in 39.00 W/m2
14:34 48.5 °F 46.9 °F 29.66 in SSE 23 mph 19.3 mph 94% 0.03 in 30.00 W/m2
14:39 48.6 °F 47 °F 29.67 in SSE 24.2 mph 20.4 mph 94% 0.02 in 28.00 W/m2
14:44 48.7 °F 47.1 °F 29.67 in SSE 25.3 mph 18.5 mph 94% 0.02 in 25.00 W/m2
14:49 48.7 °F 47.1 °F 29.68 in SSE 24.2 mph 18.9 mph 94% 0.01 in 21.00 W/m2
14:54 48.8 °F 47.2 °F 29.67 in SSE 24 mph 16.4 mph 94% 0.01 in 39.00 W/m2
14:59 48.9 °F 47.2 °F 29.68 in SE 26.5 mph 19.6 mph 94% 0.01 in 28.00 W/m2
15:04 48.9 °F 47.2 °F 29.68 in SE 21.9 mph 16.7 mph 94% 0 in 35.00 W/m2
15:09 49 °F 47.3 °F 29.67 in SE 21.9 mph 16.2 mph 94% 0 in 33.00 W/m2
15:14 49.1 °F 47.4 °F 29.67 in SSE 24.2 mph 17 mph 94% 0 in 40.00 W/m2
15:19 49.1 °F 47.2 °F 29.67 in SSE 25.3 mph 19.5 mph 93% 0 in 33.00 W/m2
15:24 49.1 °F 47.2 °F 29.68 in SSE 21.9 mph 17.5 mph 93% 0 in 25.00 W/m2
15:29 49.1 °F 47.2 °F 29.67 in South 23 mph 13.4 mph 93% 0 in 16.00 W/m2
15:34 49 °F 47.1 °F 29.68 in SSE 21 mph 11.9 mph 93% 0 in 12.00 W/m2
15:39 49.1 °F 47.2 °F 29.67 in SE 20.7 mph 15.1 mph 93% 0 in 12.00 W/m2
15:44 49.1 °F 47.2 °F 29.68 in South 16.1 mph 12.3 mph 93% 0 in 9.00 W/m2
15:49 49.1 °F 47.2 °F 29.68 in SSE 16.1 mph 12.1 mph 93% 0 in 11.00 W/m2
15:54 49.2 °F 47.3 °F 29.68 in SSE 13.8 mph 10.5 mph 93% 0 in 5.00 W/m2
15:59 49.3 °F 47.4 °F 29.68 in SSE 13.8 mph 9.2 mph 93% 0 in 7.00 W/m2
16:04 49.3 °F 47.4 °F 29.67 in SSE 13.8 mph 8.4 mph 93% 0 in 7.00 W/m2
16:09 49.2 °F 47.3 °F 29.66 in SSE 17.3 mph 10.2 mph 93% 0 in 0.00 W/m2
16:14 49.2 °F 47.3 °F 29.67 in SSE 12.7 mph 9.8 mph 93% 0 in 0.00 W/m2
16:19 49.3 °F 47.4 °F 29.67 in SSE 15 mph 10.5 mph 93% 0 in 0.00 W/m2
16:24 49.3 °F 47.4 °F 29.67 in SSE 11.5 mph 7.1 mph 93% 0 in 0.00 W/m2
16:29 49.3 °F 47.4 °F 29.66 in South 10.4 mph 6.9 mph 93% 0 in 0.00 W/m2
16:34 49.3 °F 47.6 °F 29.67 in SSE 10.4 mph 7.9 mph 94% 0 in 0.00 W/m2
16:39 49.3 °F 47.6 °F 29.67 in South 8.1 mph 5.7 mph 94% 0 in 0.00 W/m2
16:44 49.4 °F 47.7 °F 29.67 in SSE 10.4 mph 7.1 mph 94% 0 in 0.00 W/m2
16:49 49.5 °F 47.8 °F 29.66 in SSE 6 mph 5.5 mph 94% 0 in 0.00 W/m2
16:54 49.6 °F 47.9 °F 29.66 in South 11.5 mph 8.8 mph 94% 0 in 0.00 W/m2
16:59 49.7 °F 48 °F 29.66 in SSE 11.5 mph 8.6 mph 94% 0 in 0.00 W/m2
17:04 49.7 °F 48 °F 29.66 in SSE 11.5 mph 8.4 mph 94% 0 in 0.00 W/m2
17:09 49.9 °F 48.2 °F 29.66 in SSE 12.7 mph 9 mph 94% 0 in 0.00 W/m2
17:14 49.9 °F 48.2 °F 29.66 in South 11.5 mph 9.4 mph 94% 0 in 0.00 W/m2
17:19 49.9 °F 48.2 °F 29.66 in South 10.4 mph 5.4 mph 94% 0 in 0.00 W/m2
17:24 50 °F 48.3 °F 29.66 in SSE 9.2 mph 6.8 mph 94% 0 in 0.00 W/m2
17:29 50.1 °F 48.4 °F 29.66 in SSE 10.4 mph 7.1 mph 94% 0 in 0.00 W/m2
17:34 50.1 °F 48.4 °F 29.66 in SSE 10.4 mph 7.5 mph 94% 0 in 0.00 W/m2
17:39 50 °F 48.3 °F 29.66 in SSE 10.4 mph 7.6 mph 94% 0 in 0.00 W/m2
17:44 50.1 °F 48.4 °F 29.67 in SSE 11.5 mph 7.9 mph 94% 0 in 0.00 W/m2
17:49 50.1 °F 48.4 °F 29.67 in SSW 11.5 mph 6.6 mph 94% 0 in 0.00 W/m2
17:54 50.1 °F 48.4 °F 29.67 in SSE 11.5 mph 7.2 mph 94% 0 in 0.00 W/m2
17:59 50 °F 48.3 °F 29.67 in SSE 13 mph 6.9 mph 94% 0 in 0.00 W/m2
18:04 50 °F 48.3 °F 29.67 in SSE 11.5 mph 7.9 mph 94% 0.01 in 0.00 W/m2
18:09 50.2 °F 48.5 °F 29.67 in South 11.5 mph 10.4 mph 94% 0.01 in 0.00 W/m2
18:14 50.3 °F 48.6 °F 29.67 in SSE 10.4 mph 7.1 mph 94% 0.02 in 0.00 W/m2
18:19 50.6 °F 49.2 °F 29.67 in South 12.7 mph 11.5 mph 95% 0.02 in 0.00 W/m2
18:24 50.8 °F 49.1 °F 29.67 in SSE 16.1 mph 10.6 mph 94% 0.02 in 0.00 W/m2
18:29 51 °F 49.3 °F 29.67 in South 15 mph 10.6 mph 94% 0.02 in 0.00 W/m2
18:34 51.3 °F 49.9 °F 29.66 in South 17.3 mph 12.1 mph 95% 0.02 in 0.00 W/m2
18:39 51.5 °F 49.8 °F 29.66 in SE 17.3 mph 11.4 mph 94% 0.02 in 0.00 W/m2
18:44 51.6 °F 49.9 °F 29.67 in SSE 15 mph 11.2 mph 94% 0.03 in 0.00 W/m2
18:49 51.6 °F 49.9 °F 29.67 in South 12.7 mph 9.2 mph 94% 0.03 in 0.00 W/m2
18:54 51.5 °F 49.8 °F 29.67 in South 12.7 mph 9.4 mph 94% 0.03 in 0.00 W/m2
18:59 51.4 °F 49.7 °F 29.67 in South 11.5 mph 9 mph 94% 0.03 in 0.00 W/m2
19:04 51.4 °F 49.7 °F 29.67 in SSE 12 mph 7.1 mph 94% 0.03 in 0.00 W/m2
19:09 51.4 °F 49.7 °F 29.67 in South 10.4 mph 7.6 mph 94% 0.04 in 0.00 W/m2
19:14 51.3 °F 49.6 °F 29.67 in SSE 11.5 mph 8.4 mph 94% 0.03 in 0.00 W/m2
19:19 51.3 °F 49.6 °F 29.67 in South 10.4 mph 6.8 mph 94% 0.04 in 0.00 W/m2
19:24 51.2 °F 49.5 °F 29.67 in South 8.1 mph 6 mph 94% 0.04 in 0.00 W/m2
19:29 51.2 °F 49.8 °F 29.67 in SW 8.1 mph 4.8 mph 95% 0.05 in 0.00 W/m2
19:34 51.2 °F 49.8 °F 29.67 in SSW 6.9 mph 5 mph 95% 0.05 in 0.00 W/m2
19:39 51.2 °F 49.8 °F 29.67 in SSW 5 mph 3.9 mph 95% 0.05 in 0.00 W/m2
19:44 51.2 °F 49.8 °F 29.67 in South 10 mph 7 mph 95% 0.06 in 0.00 W/m2
19:49 51.2 °F 49.8 °F 29.67 in SSE 10.4 mph 7.5 mph 95% 0.07 in 0.00 W/m2
19:54 51.3 °F 49.9 °F 29.67 in SSE 11.5 mph 7.6 mph 95% 0.07 in 0.00 W/m2
19:59 51.3 °F 49.9 °F 29.67 in South 9.2 mph 5.8 mph 95% 0.07 in 0.00 W/m2
20:04 51.2 °F 49.8 °F 29.67 in South 8.1 mph 4.8 mph 95% 0.06 in 0.00 W/m2
20:09 51.2 °F 49.8 °F 29.67 in SSW 6 mph 4.1 mph 95% 0.05 in 0.00 W/m2
20:14 51.2 °F 49.8 °F 29.67 in South 5.8 mph 5.3 mph 95% 0.05 in 0.00 W/m2
20:19 51.1 °F 49.4 °F 29.66 in South 11.5 mph 7.2 mph 94% 0.04 in 0.00 W/m2
20:24 51 °F 49.6 °F 29.66 in SSE 9.2 mph 6.7 mph 95% 0.04 in 0.00 W/m2
20:29 51 °F 49.6 °F 29.66 in SSE 10.4 mph 6.5 mph 95% 0.03 in 0.00 W/m2
20:34 50.9 °F 49.5 °F 29.66 in South 11.5 mph 7.5 mph 95% 0.04 in 0.00 W/m2
20:39 51 °F 49.6 °F 29.66 in SSE 11.5 mph 8.3 mph 95% 0.04 in 0.00 W/m2
20:44 50.9 °F 49.5 °F 29.66 in SSE 11.5 mph 8 mph 95% 0.02 in 0.00 W/m2
20:49 50.8 °F 49.4 °F 29.66 in SSE 11.5 mph 5.9 mph 95% 0.01 in 0.00 W/m2
20:54 50.8 °F 49.4 °F 29.65 in South 12.7 mph 7.5 mph 95% 0.01 in 0.00 W/m2
20:59 50.7 °F 49.3 °F 29.65 in SSW 9.2 mph 5.4 mph 95% 0.01 in 0.00 W/m2
21:04 50.6 °F 49.2 °F 29.65 in SW 11.5 mph 7.3 mph 95% 0.01 in 0.00 W/m2
21:09 50.4 °F 49 °F 29.64 in South 8.1 mph 6.1 mph 95% 0.01 in 0.00 W/m2
21:14 50.3 °F 48.9 °F 29.64 in South 8.1 mph 4.4 mph 95% 0.01 in 0.00 W/m2
21:19 50.2 °F 48.8 °F 29.65 in SSW 9.2 mph 4.3 mph 95% 0.01 in 0.00 W/m2
21:24 50.1 °F 48.7 °F 29.65 in South 10.4 mph 6.2 mph 95% 0.01 in 0.00 W/m2
21:29 50.2 °F 48.8 °F 29.65 in SSE 6.9 mph 5.1 mph 95% 0.01 in 0.00 W/m2
21:34 50.2 °F 48.8 °F 29.65 in SSE 5.8 mph 3.7 mph 95% 0 in 0.00 W/m2
21:39 50 °F 48.6 °F 29.65 in South 5 mph 4.3 mph 95% 0 in 0.00 W/m2
21:44 49.9 °F 48.5 °F 29.65 in South 9.2 mph 5.6 mph 95% 0 in 0.00 W/m2
21:49 49.8 °F 48.4 °F 29.65 in South 9.2 mph 5.7 mph 95% 0 in 0.00 W/m2
21:54 49.6 °F 48.2 °F 29.65 in SSE 8.1 mph 6.3 mph 95% 0 in 0.00 W/m2
21:59 49.4 °F 48 °F 29.65 in SSE 8.1 mph 5.2 mph 95% 0 in 0.00 W/m2
22:04 49.2 °F 47.8 °F 29.65 in SSE 6.9 mph 4.5 mph 95% 0 in 0.00 W/m2
22:09 49.3 °F 47.9 °F 29.65 in South 7 mph 5.8 mph 95% 0 in 0.00 W/m2
22:14 49.5 °F 48.1 °F 29.65 in South 8.1 mph 4.7 mph 95% 0 in 0.00 W/m2
22:19 49.8 °F 48.1 °F 29.65 in SSE 8 mph 6.9 mph 94% 0 in 0.00 W/m2
22:24 49.8 °F 48.4 °F 29.65 in South 6.9 mph 5.1 mph 95% 0 in 0.00 W/m2
22:29 49.9 °F 48.5 °F 29.65 in South 11.5 mph 6.9 mph 95% 0 in 0.00 W/m2
22:34 50.1 °F 48.7 °F 29.65 in South 8.1 mph 6.1 mph 95% 0 in 0.00 W/m2
22:39 50.2 °F 48.8 °F 29.65 in SSE 11.5 mph 5.6 mph 95% 0 in 0.00 W/m2
22:44 50.3 °F 48.9 °F 29.64 in South 11.5 mph 5 mph 95% 0 in 0.00 W/m2
22:49 50.3 °F 48.9 °F 29.65 in SSW 10.4 mph 4.2 mph 95% 0 in 0.00 W/m2
22:54 50.4 °F 49 °F 29.65 in SSW 10 mph 6.5 mph 95% 0 in 0.00 W/m2
22:59 50.5 °F 49.1 °F 29.65 in South 10 mph 6.6 mph 95% 0 in 0.00 W/m2
23:04 50.5 °F 49.1 °F 29.65 in South 11.5 mph 6.8 mph 95% 0 in 0.00 W/m2
23:09 50.5 °F 49.1 °F 29.65 in SSW 11.5 mph 7.3 mph 95% 0 in 0.00 W/m2
23:14 50.4 °F 49 °F 29.64 in SSW 8.1 mph 5.9 mph 95% 0 in 0.00 W/m2
23:19 50.3 °F 48.9 °F 29.64 in SSE 11 mph 5.4 mph 95% 0 in 0.00 W/m2
23:24 50.3 °F 48.9 °F 29.64 in South 14 mph 7.2 mph 95% 0 in 0.00 W/m2
23:29 50.3 °F 48.9 °F 29.64 in SSW 11.5 mph 5.4 mph 95% 0 in 0.00 W/m2
23:34 50.4 °F 49 °F 29.64 in SSW 12.7 mph 4.2 mph 95% 0 in 0.00 W/m2
23:39 50.5 °F 49.1 °F 29.65 in SSW 11.5 mph 7.7 mph 95% 0 in 0.00 W/m2
23:44 50.8 °F 49.4 °F 29.65 in SSW 10.4 mph 5.9 mph 95% 0 in 0.00 W/m2
23:49 51 °F 49.6 °F 29.65 in South 11.5 mph 7.3 mph 95% 0 in 0.00 W/m2
23:54 51.2 °F 49.8 °F 29.65 in SSE 18.4 mph 9.2 mph 95% 0 in 0.00 W/m2
23:59 51.4 °F 50 °F 29.65 in SSW 12.7 mph 7.9 mph 95% 0 in 0.00 W/m2
Bourbonnais, Illinois, USA
Compliments of Weather Underground - 4 mb